Location: Austin
(30.3000°N, 97.7500°W)
Time: 23:40:51
(UTC-05:00)

Cosmos 1697 Rocket - Pass Details

Date: 06 May 2026
Orbit: 832 x 842 km, 71.0° (Epoch: 13 May)

Event Time Altitude Azimuth Distance (km) Brightness Sun altitude
Rises 23:24:05 0° 330° (NNW) 3,382 6.9 -34.3°
Reaches altitude 10° 23:26:40 10° 323° (NW) 2,444 5.9 -34.6°
Enters shadow 23:30:25 33° 288° (WNW) 1,360 4.0 -35.1°
